AT627 Weather Reports


Display with metric or nautical units.
time (UTC)temp
F
wind
direction
speed
MPH
gust
MPH
rain 1hr
in
rain 24hr
in
rain mn
in
humidity
%
barometer
mb
20260510054529 52 90 1.0 2.0 0.00 0.20 0.00 96 984.7
20260510054029 52 8 1.0 3.0 0.00 0.20 0.00 96 984.7
20260510053529 52 82 1.0 3.0 0.00 0.20 0.00 96 984.8
20260510053256 52 131 1.0 3.0 0.00 0.20 0.00 96 984.7
20260510052529 52 243 1.0 4.0 0.00 0.20 0.00 96 984.8
20260510052028 52 65 1.0 4.0 0.00 0.20 0.00 96 984.9
20260510051529 52 0 1.0 3.0 0.00 0.20 0.00 96 984.9
20260510051029 52 55 1.0 4.0 0.00 0.20 0.00 96 984.9
20260510050529 52 9 1.0 4.0 0.00 0.20 0.00 96 984.9
20260510050028 52 47 1.0 4.0 0.00 0.20 0.00 96 984.9
20260510045529 51 10 1.0 4.0 0.00 0.20 0.00 96 985.0
20260510045029 51 24 1.0 3.0 0.00 0.20 0.00 96 985.0
20260510044530 51 0 1.0 4.0 0.00 0.20 0.00 96 985.0
20260510044030 51 33 1.0 4.0 0.00 0.20 0.00 96 985.0
20260510043530 51 50 1.0 3.0 0.00 0.20 0.00 96 984.9
20260510043029 51 60 1.0 3.0 0.00 0.20 0.00 96 985.1
20260510042530 51 52 2.0 3.0 0.00 0.20 0.00 96 985.1
20260510042030 51 46 1.0 3.0 0.00 0.20 0.00 96 985.1
20260510041530 51 39 1.0 3.0 0.00 0.20 0.00 96 985.1
20260510041030 51 0 1.0 4.0 0.00 0.20 0.00 96 985.2
20260510040530 52 58 2.0 4.0 0.00 0.20 0.00 96 985.2
20260510040030 52 59 1.0 4.0 0.00 0.20 0.00 96 985.2
20260510035529 52 53 1.0 4.0 0.00 0.20 0.04 96 985.2
20260510035319 52 62 2.0 4.0 0.00 0.20 0.04 96 985.1
20260510034529 51 52 2.0 4.0 0.00 0.20 0.04 96 985.1
20260510034028 51 51 1.0 4.0 0.00 0.20 0.04 96 985.2
20260510033530 51 29 1.0 3.0 0.00 0.20 0.04 96 985.1
20260510033317 51 30 1.0 3.0 0.00 0.20 0.04 95 985.1
20260510032530 51 55 1.0 3.0 0.00 0.20 0.04 95 985.0
20260510032318 52 34 1.0 4.0 0.00 0.20 0.04 95 985.1
20260510031820 52 53 1.0 4.0 0.00 0.20 0.04 95 985.1
20260510031030 52 43 1.0 4.0 0.00 0.20 0.04 95 985.0
20260510030531 52 55 1.0 4.0 0.00 0.20 0.04 95 985.0
20260510030030 52 43 1.0 4.0 0.00 0.20 0.04 95 985.0
20260510025530 52 56 1.0 4.0 0.00 0.20 0.04 95 984.9
20260510025029 52 0 1.0 4.0 0.00 0.20 0.04 95 984.8
20260510024529 52 53 1.0 4.0 0.00 0.20 0.04 95 984.7
20260510024029 52 296 1.0 4.0 0.00 0.20 0.04 95 984.8
20260510023530 52 248 2.0 4.0 0.00 0.20 0.04 95 984.8
20260510023031 52 356 2.0 4.0 0.00 0.20 0.04 95 984.8
20260510022531 52 47 1.0 4.0 0.00 0.20 0.04 95 984.8
20260510022030 52 44 1.0 4.0 0.00 0.20 0.04 95 984.9
20260510021530 52 342 1.0 4.0 0.00 0.20 0.04 95 984.8
20260510021031 52 54 1.0 3.0 0.00 0.20 0.04 95 984.8
20260510020530 53 83 1.0 4.0 0.00 0.20 0.04 95 984.7
20260510020030 53 41 1.0 4.0 0.00 0.20 0.04 95 984.7
20260510015534 53 47 1.0 4.0 0.00 0.20 0.04 95 984.6
20260510015317 53 3 1.0 3.0 0.00 0.20 0.04 95 984.7
20260510014531 53 0 1.0 4.0 0.00 0.20 0.04 94 984.6
20260510014031 53 44 1.0 4.0 0.00 0.20 0.04 94 984.6
20260510013530 53 55 1.0 3.0 0.00 0.20 0.04 94 984.4
20260510013030 53 46 1.0 3.0 0.00 0.20 0.04 94 984.4
20260510012530 53 0 1.0 3.0 0.00 0.20 0.04 94 984.3
20260510012030 53 58 1.0 3.0 0.00 0.20 0.04 94 984.4
20260510011530 53 42 1.0 3.0 0.00 0.20 0.04 94 984.4
20260510011030 54 0 1.0 3.0 0.00 0.20 0.04 94 984.3
20260510010529 54 82 1.0 3.0 0.00 0.20 0.04 93 984.3
20260510010031 54 62 1.0 3.0 0.00 0.20 0.04 93 984.3
20260510005530 54 356 1.0 3.0 0.00 0.20 0.04 93 984.3
20260510005029 54 74 2.0 3.0 0.00 0.20 0.04 93 984.3
20260510004528 55 37 2.0 3.0 0.00 0.20 0.04 93 984.1
20260510004028 55 79 1.0 3.0 0.00 0.20 0.04 93 984.1
20260510003528 55 36 1.0 3.0 0.00 0.20 0.04 92 984.0
20260510003028 55 8 1.0 3.0 0.00 0.20 0.04 92 984.0
20260510002528 55 73 1.0 3.0 0.00 0.20 0.04 92 984.0
20260510002029 55 61 2.0 4.0 0.00 0.20 0.04 91 984.0
20260510001528 55 59 2.0 4.0 0.00 0.20 0.04 91 983.9
20260510001028 56 67 2.0 3.0 0.00 0.20 0.04 90 983.9
20260510000528 56 37 1.0 3.0 0.00 0.20 0.04 90 984.0
20260510000025 56 21 1.0 2.0 0.00 0.20 0.04 89 983.9
20260509235525 56 32 1.0 3.0 0.00 0.20 0.04 89 983.8
20260509235026 57 61 1.0 3.0 0.00 0.20 0.04 88 983.7
20260509234811 57 52 1.0 2.0 0.00 0.20 0.04 88 983.7
20260509234025 58 0 1.0 3.0 0.00 0.20 0.04 87 983.7
20260509233605 58 78 1.0 3.0 0.00 0.20 0.04 86 983.8
20260509233552 58 73 1.0 3.0 0.00 0.20 0.04 86 983.8
20260509232525 58 0 1.0 2.0 0.00 0.20 0.04 85 983.9
20260509232025 58 0 1.0 2.0 0.00 0.20 0.04 84 983.9
20260509231526 59 43 1.0 2.0 0.00 0.20 0.04 83 983.8
20260509231108 59 99 1.0 2.0 0.00 0.20 0.04 80 983.9
20260509231054 59 65 1.0 2.0 0.00 0.20 0.04 81 983.9
20260509230022 60 25 0.0 2.0 0.00 0.20 0.04 79 983.9
20260509225522 60 124 0.0 2.0 0.00 0.20 0.04 78 983.9
20260509225023 60 19 0.0 2.0 0.00 0.20 0.04 78 983.8
20260509224524 61 50 0.0 2.0 0.00 0.20 0.04 77 983.8
20260509224309 61 65 0.0 2.0 0.00 0.20 0.04 75 983.8
20260509223524 61 188 0.0 2.0 0.00 0.20 0.04 75 983.8
20260509223308 61 0 0.0 2.0 0.00 0.20 0.04 75 983.8
20260509222810 61 33 1.0 2.0 0.00 0.20 0.04 75 983.8
20260509222024 60 53 1.0 2.0 0.00 0.20 0.04 76 983.9
20260509221806 60 179 1.0 2.0 0.00 0.20 0.04 75 983.9
20260509221020 60 312 1.0 2.0 0.00 0.20 0.04 75 983.9
20260509220521 60 6 0.0 2.0 0.00 0.20 0.04 75 983.9
20260509220021 60 0 0.0 2.0 0.00 0.20 0.04 77 983.9
20260509215521 59 77 0.0 1.0 0.00 0.20 0.04 80 984.0
20260509215021 59 0 0.0 1.0 0.00 0.20 0.04 78 984.0
20260509214519 59 0 0.0 2.0 0.00 0.20 0.04 80 984.0
20260509214017 59 0 1.0 3.0 0.00 0.20 0.04 81 984.0
20260509213518 59 7 1.0 3.0 0.00 0.20 0.04 81 983.9
20260509213302 59 178 1.0 2.0 0.00 0.20 0.04 79 983.8
20260509212519 59 87 1.0 3.0 0.00 0.20 0.04 81 983.9
20260509212310 59 90 1.0 3.0 0.00 0.20 0.04 82 983.9
20260509211516 59 325 1.0 2.0 0.00 0.20 0.04 85 983.9
20260509211017 58 76 0.0 2.0 0.00 0.20 0.04 85 984.0
20260509210517 58 0 1.0 2.0 0.00 0.20 0.04 85 984.1
20260509210012 58 95 1.0 2.0 0.00 0.20 0.04 83 984.0
20260509205512 58 0 1.0 2.0 0.00 0.20 0.04 82 984.1
20260509205012 58 0 1.0 2.0 0.00 0.20 0.04 82 984.0
20260509204801 58 65 1.0 2.0 0.00 0.20 0.04 81 984.1
20260509204300 59 0 1.0 2.0 0.00 0.20 0.04 82 984.1
20260509203550 59 41 1.0 3.0 0.00 0.20 0.04 80 984.1
20260509203537 59 64 1.0 2.0 0.00 0.20 0.04 82 984.1
20260509202512 59 99 1.0 3.0 0.00 0.20 0.04 79 984.1
20260509202011 59 120 1.0 3.0 0.00 0.20 0.04 79 984.1
20260509201802 60 0 1.0 3.0 0.00 0.20 0.04 80 984.2
20260509201011 59 47 1.0 3.0 0.00 0.20 0.04 80 984.3
20260509200759 59 26 1.0 3.0 0.01 0.20 0.04 84 984.4
20260509200007 59 104 1.0 3.0 0.01 0.20 0.04 84 984.4
20260509195506 58 25 1.0 3.0 0.01 0.20 0.04 85 984.3
20260509195002 58 114 1.0 3.0 0.01 0.20 0.04 84 984.2
20260509194620 57 0 1.0 3.0 0.01 0.20 0.04 86 984.3
20260509194615 57 0 1.0 2.0 0.01 0.20 0.04 86 984.3
20260509194554 57 35 1.0 3.0 0.01 0.20 0.04 84 984.2
20260509193001 56 356 1.0 2.0 0.01 0.20 0.04 88 984.4
20260509192500 56 21 1.0 2.0 0.01 0.20 0.04 88 984.4
20260509192001 56 0 1.0 3.0 0.01 0.20 0.04 87 984.5
20260509191501 56 0 1.0 3.0 0.01 0.20 0.04 87 984.6
20260509191002 56 86 1.0 3.0 0.01 0.20 0.04 86 984.7
20260509190500 56 0 1.0 2.0 0.01 0.19 0.04 85 985.0
20260509190001 56 329 1.0 3.0 0.01 0.19 0.04 84 985.1
20260509185501 56 0 1.0 3.0 0.01 0.19 0.04 85 985.1
20260509185003 56 61 1.0 2.0 0.01 0.19 0.04 86 985.1
20260509184504 56 107 1.0 2.0 0.01 0.19 0.04 86 985.3
20260509184002 55 63 1.0 3.0 0.01 0.19 0.04 86 985.3
20260509183503 55 356 1.0 3.0 0.01 0.19 0.04 85 985.4
20260509183002 55 353 0.0 2.0 0.01 0.19 0.04 87 985.5
20260509182503 55 56 0.0 2.0 0.01 0.19 0.04 88 985.5
20260509182001 55 0 0.0 2.0 0.00 0.19 0.04 87 985.6
20260509181503 55 0 0.0 2.0 0.01 0.19 0.04 86 985.6
20260509181249 55 81 1.0 2.0 0.01 0.19 0.04 86 985.8
20260509180503 55 9 1.0 2.0 0.00 0.19 0.04 85 985.8
20260509180003 55 8 1.0 2.0 0.00 0.19 0.04 85 985.8
20260509175752 55 351 1.0 2.0 0.00 0.19 0.04 85 985.8
20260509175003 55 343 1.0 2.0 0.00 0.19 0.04 85 985.8
20260509174502 55 308 1.0 3.0 0.00 0.19 0.04 85 985.8
20260509174003 56 272 1.0 3.0 0.00 0.19 0.04 84 985.9
20260509173501 56 32 1.0 2.0 0.00 0.19 0.04 84 985.8
20260509173002 56 274 1.0 2.0 0.00 0.19 0.04 85 985.7
20260509172501 56 62 1.0 2.0 0.00 0.19 0.04 84 985.8
20260509172250 56 38 1.0 3.0 0.00 0.19 0.04 84 985.9
20260509171753 56 0 1.0 3.0 0.00 0.18 0.04 82 985.9
20260509171044 56 335 1.0 4.0 0.00 0.18 0.04 83 985.9
20260509171031 56 0 1.0 3.0 0.00 0.18 0.04 82 986.0
20260509170002 56 16 1.0 4.0 0.00 0.18 0.04 82 986.0
20260509165503 56 321 2.0 4.0 0.01 0.18 0.04 80 986.0
20260509165043 56 204 1.0 3.0 0.04 0.18 0.04 82 986.0
20260509165030 56 351 1.0 3.0 0.02 0.18 0.04 83 986.0
20260509164251 56 301 1.0 2.0 0.04 0.18 0.04 81 985.9
20260509163501 56 311 1.0 2.0 0.06 0.18 0.04 84 985.8
20260509163001 56 202 1.0 3.0 0.07 0.18 0.04 83 985.6
20260509162503 55 121 1.0 3.0 0.08 0.18 0.04 83 985.3
20260509162004 55 0 1.0 3.0 0.10 0.18 0.04 84 985.2
20260509161752 55 124 1.0 3.0 0.11 0.18 0.04 85 985.3
20260509161252 55 108 1.0 2.0 0.12 0.18 0.04 86 985.4
20260509160503 55 333 1.0 2.0 0.13 0.18 0.04 88 985.5
20260509160002 55 1 2.0 2.0 0.13 0.18 0.17 88 985.7
20260509155502 55 343 2.0 2.0 0.14 0.17 0.17 88 985.9
20260509155001 55 343 1.0 2.0 0.13 0.16 0.15 88 985.9
20260509154511 55 212 1.0 2.0 0.13 0.15 0.14 88 986.2
20260509154229 56 350 0.0 2.0 0.12 0.14 0.13 88 986.3
20260509153502 56 216 1.0 2.0 0.11 0.13 0.12 88 986.5
20260509153004 56 287 1.0 3.0 0.10 0.11 0.10 86 986.4
20260509152508 56 314 1.0 4.0 0.07 0.08 0.07 84 986.6
20260509152502 56 14 1.0 4.0 0.09 0.10 0.09 86 986.4
20260509151502 56 5 1.0 4.0 0.06 0.07 0.07 84 986.7
20260509151003 57 56 1.0 4.0 0.05 0.06 0.06 83 986.5
20260509150505 57 250 1.0 4.0 0.04 0.04 0.04 82 986.6
20260509150501 57 205 1.0 3.0 0.04 0.05 0.05 82 986.6
20260509145502 57 321 2.0 4.0 0.03 0.04 0.03 81 986.4
20260509145002 58 189 1.0 4.0 0.02 0.02 0.02 80 986.5
20260509144502 58 254 1.0 4.0 0.02 0.02 0.02 81 986.3
20260509144002 57 286 2.0 4.0 0.01 0.02 0.01 80 986.2
20260509143502 57 274 2.0 4.0 0.01 0.01 0.01 80 986.2
20260509143002 57 36 2.0 4.0 0.01 0.01 0.01 78 986.0
20260509142503 58 303 1.0 4.0 0.01 0.01 0.01 80 986.0
20260509142003 58 163 2.0 4.0 0.01 0.01 0.01 79 986.1
20260509141502 58 212 2.0 4.0 0.01 0.01 0.00 78 986.0
20260509141001 58 284 2.0 4.0 0.00 0.01 0.00 78 986.0
20260509140502 58 205 2.0 4.0 0.00 0.01 0.00 77 986.0
20260509140002 58 313 2.0 4.0 0.00 0.00 0.00 77 985.8
20260509135501 58 171 2.0 4.0 0.00 0.00 0.00 76 985.9
20260509135002 58 203 2.0 5.0 0.00 0.00 0.00 76 985.8
20260509134501 58 247 2.0 7.0 0.00 0.00 0.00 76 985.7
20260509134252 58 196 3.0 7.0 0.00 0.00 0.00 77 985.5
20260509133501 58 158 2.0 6.0 0.00 0.00 0.00 77 985.6
20260509133001 58 0 2.0 4.0 0.00 0.00 0.00 77 985.6
20260509132729 58 193 2.0 4.0 0.00 0.00 0.00 77 985.7
20260509132000 57 171 2.0 4.0 0.00 0.00 0.00 76 985.5
20260509131733 57 80 2.0 6.0 0.00 0.00 0.00 77 985.6
20260509131729 57 165 2.0 4.0 0.00 0.00 0.00 77 985.5
20260509130500 57 282 2.0 6.0 0.00 0.00 0.00 77 985.6
20260509130000 56 204 2.0 6.0 0.00 0.00 0.00 78 985.7
20260509125501 56 171 2.0 4.0 0.00 0.00 0.00 78 985.6
20260509125232 56 346 2.0 4.0 0.00 0.00 0.00 78 985.6
20260509124501 56 266 2.0 5.0 0.00 0.00 0.00 78 985.4
20260509124001 56 181 2.0 5.0 0.00 0.00 0.00 77 985.4
20260509123501 56 135 2.0 4.0 0.00 0.00 0.00 78 985.5
20260509123007 56 184 2.0 4.0 0.00 0.00 0.00 78 985.6
20260509122506 56 151 1.0 4.0 0.00 0.00 0.00 78 985.6
20260509122232 55 8 1.0 2.0 0.00 0.00 0.00 79 985.7
20260509121726 55 125 1.0 2.0 0.00 0.00 0.00 80 985.7
20260509121001 55 250 1.0 2.0 0.00 0.00 0.00 79 985.6
20260509120501 55 225 1.0 2.0 0.00 0.00 0.00 80 985.6
20260509120005 55 60 1.0 2.0 0.00 0.00 0.00 79 985.5
20260509115730 55 157 1.0 2.0 0.00 0.00 0.00 80 985.6
20260509115002 55 0 0.0 2.0 0.00 0.00 0.00 80 985.6
20260509114503 55 0 0.0 2.0 0.00 0.00 0.00 80 985.5
20260509114003 55 54 1.0 2.0 0.00 0.00 0.00 80 985.5
20260509113503 54 305 1.0 2.0 0.00 0.00 0.00 80 985.5
20260509113004 54 0 0.0 1.0 0.00 0.00 0.00 80 985.4
20260509112728 54 15 1.0 2.0 0.00 0.00 0.00 80 985.5
20260509112003 54 20 1.0 2.0 0.00 0.00 0.00 80 985.5
20260509111504 54 41 1.0 2.0 0.00 0.00 0.00 79 985.5
20260509111002 54 16 1.0 2.0 0.00 0.00 0.00 79 985.5
20260509110505 54 343 1.0 2.0 0.00 0.00 0.00 79 985.4
20260509110004 54 338 0.0 2.0 0.00 0.00 0.00 79 985.5
20260509105504 54 48 1.0 2.0 0.00 0.00 0.00 79 985.5
20260509105004 53 24 1.0 2.0 0.00 0.00 0.00 79 985.3
20260509104505 53 7 1.0 3.0 0.00 0.00 0.00 80 985.3
20260509104003 53 0 1.0 3.0 0.00 0.00 0.00 81 985.2
20260509103504 53 0 1.0 3.0 0.00 0.00 0.00 81 985.2
20260509103004 53 63 1.0 3.0 0.00 0.00 0.00 80 985.2
20260509102503 53 70 1.0 3.0 0.00 0.00 0.00 79 985.1
20260509102003 53 54 0.0 3.0 0.00 0.00 0.00 79 985.1
20260509101501 53 0 1.0 2.0 0.00 0.00 0.00 79 985.1
20260509101002 53 343 1.0 2.0 0.00 0.00 0.00 80 985.1
20260509100504 53 1 1.0 2.0 0.00 0.00 0.00 80 985.0
20260509100002 53 0 0.0 2.0 0.00 0.00 0.00 80 985.0
20260509095502 53 23 1.0 2.0 0.00 0.00 0.00 80 985.0
20260509095240 53 9 1.0 2.0 0.00 0.00 0.00 80 985.1
20260509095213 53 21 1.0 2.0 0.00 0.00 0.00 80 985.0
20260509094003 53 31 1.0 2.0 0.00 0.00 0.00 80 985.0
20260509093502 53 247 1.0 2.0 0.00 0.00 0.00 80 985.1
20260509093003 53 82 1.0 2.0 0.00 0.00 0.00 80 985.1
20260509092505 53 45 1.0 2.0 0.00 0.01 0.00 80 985.1
20260509092003 54 46 0.0 1.0 0.00 0.01 0.00 80 985.1
20260509091956 54 0 1.0 2.0 0.00 0.01 0.00 79 985.1
20260509091004 54 19 1.0 2.0 0.00 0.01 0.00 79 985.1
20260509090504 54 325 1.0 2.0 0.00 0.01 0.00 79 985.2
20260509090233 54 0 1.0 2.0 0.00 0.01 0.00 79 985.2
20260509085503 54 21 1.0 4.0 0.00 0.01 0.00 79 985.2
20260509085002 54 47 1.0 4.0 0.00 0.01 0.00 79 985.2
20260509084502 54 55 1.0 3.0 0.00 0.01 0.00 79 985.3
20260509084002 54 102 1.0 3.0 0.00 0.01 0.00 79 985.4
20260509083730 54 8 2.0 5.0 0.00 0.01 0.00 79 985.4
20260509083001 54 0 2.0 5.0 0.00 0.01 0.00 79 985.5
20260509082502 54 13 1.0 4.0 0.00 0.01 0.00 79 985.5
20260509082230 53 202 2.0 5.0 0.00 0.01 0.00 79 985.5
20260509081502 53 196 2.0 5.0 0.00 0.01 0.00 79 985.5
20260509081002 53 283 1.0 4.0 0.00 0.01 0.00 79 985.5
20260509080502 53 108 1.0 4.0 0.00 0.01 0.00 79 985.4
20260509080003 53 268 1.0 3.0 0.00 0.01 0.00 79 985.5
20260509075502 53 77 1.0 3.0 0.00 0.01 0.00 78 985.5
20260509075002 53 297 2.0 3.0 0.00 0.01 0.00 78 985.6
20260509074734 53 208 1.0 3.0 0.00 0.01 0.00 77 985.7
20260509074002 53 222 1.0 3.0 0.00 0.01 0.00 77 985.8
20260509073502 53 14 1.0 2.0 0.00 0.01 0.00 77 985.8
20260509073002 53 12 1.0 2.0 0.00 0.01 0.00 76 985.7
20260509072502 53 3 2.0 4.0 0.00 0.01 0.00 76 985.8
20260509072002 53 32 2.0 4.0 0.00 0.01 0.00 76 985.8
20260509071740 53 356 2.0 3.0 0.00 0.01 0.00 76 985.6
20260509071002 53 294 2.0 4.0 0.00 0.01 0.00 75 985.7
20260509070503 53 76 2.0 4.0 0.00 0.01 0.00 75 985.5
20260509065950 53 24 2.0 4.0 0.00 0.01 0.00 75 985.5
20260509065451 54 82 1.0 4.0 0.00 0.01 0.00 74 985.4
20260509064950 54 76 1.0 4.0 0.00 0.01 0.00 74 985.5
20260509064451 54 104 1.0 2.0 0.00 0.01 0.00 74 985.6
20260509063951 54 68 1.0 3.0 0.00 0.01 0.00 74 985.6
20260509063451 54 123 2.0 3.0 0.00 0.01 0.00 74 985.6
20260509062951 54 73 1.0 2.0 0.00 0.01 0.00 74 985.7
20260509062451 54 122 1.0 2.0 0.00 0.01 0.00 73 985.8
20260509061951 54 70 1.0 3.0 0.00 0.01 0.00 74 985.8
20260509061712 55 355 2.0 3.0 0.00 0.01 0.00 73 985.8
20260509060937 55 82 1.0 3.0 0.00 0.01 0.00 72 985.9
20260509060438 55 40 1.0 3.0 0.00 0.01 0.00 72 986.0
20260509060228 56 19 1.0 2.0 0.00 0.01 0.00 72 986.2
20260509060224 55 281 1.0 3.0 0.00 0.01 0.00 72 986.2
20260509055213 56 316 1.0 2.0 0.00 0.01 0.00 72 986.2